Location: Musselshell
(46.5176°N, 108.0911°W)
Time: 10:33:30
(UTC+00:00)

AIST 2D - Visible Passes

Search period start: 29 June 2022 00:00
Search period end: 09 July 2022 00:00
Orbit: 433 x 449 km, 97.1° (Epoch: 28 June)

Date Brightness Start Highest point End Pass type
(mag) Time Alt. Az. Time Alt. Az. Time Alt. Az.
29 Jun ? 04:51:55 10° NNE 04:55:16 83° ESE 04:57:41 17° S visible
30 Jun ? 04:14:36 10° NE 04:17:27 26° E 04:19:37 14° SSE visible
30 Jun ? 05:47:28 10° NNW 05:49:56 19° WNW 05:52:23 10° WSW visible
01 Jul ? 05:09:07 10° N 05:12:24 56° WNW 05:14:59 15° SSW visible
02 Jul ? 04:31:27 10° NNE 04:34:39 43° E 04:36:53 17° SSE visible
02 Jul ? 06:05:20 10° NW 06:06:54 13° WNW 06:08:28 10° W visible
03 Jul ? 03:54:40 10° NE 03:56:41 15° E 03:58:41 10° SE visible
03 Jul ? 05:26:23 10° N 05:29:25 33° WNW 05:32:13 11° SW visible
04 Jul ? 04:48:23 10° NNE 04:51:43 75° ESE 04:54:04 18° S visible
05 Jul ? 04:11:03 10° NE 04:13:49 24° E 04:15:54 14° SE visible
05 Jul ? 05:43:43 10° NNW 05:46:19 21° WNW 05:48:54 10° WSW visible
06 Jul ? 05:05:22 10° N 05:08:40 62° WNW 05:11:10 16° SSW visible
07 Jul ? 04:27:39 10° NNE 04:30:49 38° E 04:32:58 17° SSE visible
07 Jul ? 06:01:17 10° NNW 06:03:06 14° WNW 06:04:56 10° W visible
08 Jul ? 03:50:57 10° ENE 03:52:45 14° E 03:54:32 10° SE visible
08 Jul ? 05:22:24 10° N 05:25:31 37° WNW 05:28:11 13° SW visible
